Date String (YYYY-MM-DD hh:mm:ss) UTC,Instrument flags,Ambient pressure (hPa),Sample flow (lpm),Bypass flow (lpm),Sample temperature (°C),Ambient temperature (°C),ASC tube jacket temperature (°C),LED temperature (°C),Box temperature (°C),Sample RH (%),Span deviation,Mass concentration (μg/m³),Mass concentration (μg/m³),Mass concentration (μg/m³)
DateTimeUTC,F1_M11,P_M11,Q1_M11,Q2_M11,T1_M11,T2_M11,T3_M11,T4_M11,T5_M11,U1_M11,ZSPAN_M11,X0_M11,X2_M11,X1_M11
2023-04-23 03:00:00,,0832.2,5.00,0.00,22.1,20.7,00.0,30.5,23.7,17.4,-000.1,0015.37,0010.64,0009.67
2023-04-23 03:01:00,,0832.2,5.00,0.00,22.1,20.7,00.0,30.5,23.6,17.4,-000.2,0015.03,0010.62,0009.67
2023-04-23 03:02:00,,0832.2,5.00,0.00,22.1,20.6,00.0,30.5,23.6,17.5,-000.5,0014.95,0010.56,0009.66
2023-04-23 03:03:00,,0832.2,4.99,0.00,22.1,20.6,00.0,30.5,23.6,17.6,-000.4,0014.67,0010.55,0009.67
2023-04-23 03:04:00,,0832.2,5.00,0.00,22.1,20.6,00.0,30.5,23.6,17.6,-000.4,0014.37,0010.52,0009.67
2023-04-23 03:05:00,,0832.2,5.00,0.00,22.1,20.5,00.0,30.5,23.5,17.6,-000.0,0014.34,0010.51,0009.66
2023-04-23 03:06:00,,0832.2,5.00,0.00,22.0,20.5,00.0,30.5,23.5,17.6,0000.2,0014.55,0010.54,0009.69
2023-04-23 03:07:00,,0832.2,4.99,0.00,22.0,20.5,00.0,30.5,23.5,17.5,0000.3,0014.90,0010.52,0009.68
2023-04-23 03:08:00,,0832.2,4.99,0.00,22.0,20.4,00.0,30.5,23.5,17.4,0000.6,0014.89,0010.46,0009.65
2023-04-23 03:09:00,,0832.2,5.00,0.00,22.0,20.4,00.0,30.5,23.5,17.4,0000.4,0015.10,0010.39,0009.62
2023-04-23 03:10:00,,0832.2,5.00,0.00,22.0,20.3,00.0,30.5,23.5,17.4,-000.2,0015.55,0010.44,0009.61
2023-04-23 03:11:00,,0832.2,5.01,0.00,22.0,20.3,00.0,30.5,23.5,17.4,-000.2,0015.52,0010.42,0009.58
2023-04-23 03:12:00,,0832.2,5.00,0.00,22.0,20.3,00.0,30.4,23.5,17.4,-000.0,0015.52,0010.42,0009.55
2023-04-23 03:13:00,,0832.2,5.00,0.00,22.0,20.3,00.0,30.4,23.4,17.4,0000.1,0015.48,0010.44,0009.53
2023-04-23 03:14:00,,0832.2,5.00,0.00,21.9,20.3,00.0,30.4,23.4,17.3,-000.2,0015.81,0010.41,0009.46
2023-04-23 03:15:00,,0832.2,5.00,0.00,21.9,20.3,00.0,30.4,23.4,17.3,-000.3,0015.91,0010.32,0009.38
2023-04-23 03:16:00,,0832.2,5.00,0.00,21.9,20.3,00.0,30.4,23.4,17.3,-000.3,0015.87,0010.26,0009.31
2023-04-23 03:17:00,,0832.2,5.00,0.00,21.9,20.3,00.0,30.4,23.4,17.3,-000.2,0015.73,0010.17,0009.22
2023-04-23 03:18:00,,0832.2,5.00,0.00,21.9,20.3,00.0,30.4,23.4,17.4,-000.4,0014.98,0010.05,0009.14
2023-04-23 03:19:00,,0832.2,5.00,0.00,21.9,20.3,00.0,30.4,23.4,17.4,-000.7,0015.87,0010.00,0009.08
2023-04-23 03:20:00,,0832.2,5.00,0.00,21.9,20.3,00.0,30.4,23.4,17.3,-000.7,0015.84,0009.93,0009.00
2023-04-23 03:21:00,,0832.2,5.00,0.00,21.9,20.3,00.0,30.3,23.4,17.3,-000.1,0015.05,0009.82,0008.92
2023-04-23 03:22:00,,0832.2,5.00,0.00,21.9,20.3,00.0,30.3,23.4,17.4,-000.2,0014.94,0009.74,0008.86
2023-04-23 03:23:00,,0832.2,5.00,0.00,21.9,20.3,00.0,30.3,23.4,17.4,-000.3,0014.86,0009.71,0008.81
2023-04-23 03:24:00,,0832.2,5.00,0.00,21.9,20.3,00.0,30.3,23.4,17.4,-000.1,0014.79,0009.64,0008.75
2023-04-23 03:25:00,,0832.2,5.00,0.00,21.9,20.3,00.0,30.3,23.4,17.4,-000.2,0014.55,0009.56,0008.69
2023-04-23 03:26:00,,0832.2,4.99,0.00,21.8,20.3,00.0,30.3,23.4,17.4,-000.5,0014.77,0009.54,0008.65
2023-04-23 03:27:00,,0832.2,5.00,0.00,21.8,20.2,00.0,30.3,23.3,17.4,-000.6,0014.92,0009.49,0008.58
2023-04-23 03:28:00,,0832.2,5.00,0.00,21.8,20.2,00.0,30.3,23.4,17.4,-000.9,0014.80,0009.41,0008.52
2023-04-23 03:29:00,,0832.2,5.00,0.00,21.8,20.2,00.0,30.3,23.3,17.3,-000.8,0014.71,0009.33,0008.45
2023-04-23 03:30:00,,0832.2,5.01,0.00,21.9,20.7,00.0,30.2,23.6,17.2,-000.4,0013.56,0009.23,0008.38
2023-04-23 03:31:00,,0832.2,5.01,0.00,22.0,21.7,00.0,30.2,24.0,17.1,-000.2,0013.41,0009.17,0008.31
2023-04-23 03:32:00,,0832.3,4.99,0.00,22.1,22.7,00.0,30.2,24.2,16.9,-000.2,0013.24,0009.03,0008.19
2023-04-23 03:33:00,,0832.2,5.00,0.00,22.2,22.7,00.0,30.3,24.2,16.6,0000.1,0013.00,0008.79,0007.97
2023-04-23 03:34:00,,0832.2,5.01,0.00,22.3,22.4,00.0,30.4,24.1,16.4,0000.2,0012.63,0008.50,0007.74
2023-04-23 03:35:00,,0832.2,5.00,0.00,22.3,22.1,00.0,30.4,24.0,16.4,-000.2,0013.07,0008.28,0007.55
2023-04-23 03:36:00,,0832.2,5.00,0.00,22.3,21.8,00.0,30.5,24.0,16.4,-000.2,0012.84,0008.07,0007.38
2023-04-23 03:37:00,,0832.2,4.99,0.00,22.3,21.6,00.0,30.5,23.9,16.4,-000.4,0012.42,0007.89,0007.22
2023-04-23 03:38:00,,0832.2,5.00,0.00,22.3,21.4,00.0,30.5,23.9,16.5,-000.5,0012.38,0007.73,0007.08
2023-04-23 03:39:00,,0832.3,5.00,0.00,22.3,21.3,00.0,30.5,23.9,16.5,-000.2,0012.42,0007.67,0006.97
2023-04-23 03:40:00,,0832.3,5.01,0.00,22.2,21.1,00.0,30.5,23.9,16.5,-000.2,0012.35,0007.57,0006.87
2023-04-23 03:41:00,,0832.3,5.00,0.00,22.2,21.0,00.0,30.5,23.8,16.6,-000.3,0012.25,0007.48,0006.78
2023-04-23 03:42:00,,0832.3,5.00,0.00,22.2,20.9,00.0,30.5,23.8,16.6,-000.2,0012.09,0007.35,0006.70
2023-04-23 03:43:00,,0832.3,5.00,0.00,22.2,20.9,00.0,30.5,23.8,16.6,-000.3,0012.06,0007.29,0006.63
2023-04-23 03:44:00,,0832.3,5.00,0.00,22.2,20.8,00.0,30.6,23.8,16.6,-000.3,0012.10,0007.32,0006.65
2023-04-23 03:45:00,,0832.3,4.99,0.00,22.2,20.7,00.0,30.6,23.7,16.6,-000.3,0012.21,0007.39,0006.69
2023-04-23 03:46:00,,0832.3,5.00,0.00,22.2,20.6,00.0,30.6,23.7,16.6,-000.3,0012.09,0007.39,0006.69
2023-04-23 03:47:00,,0832.3,5.00,0.00,22.1,20.6,00.0,30.6,23.7,16.5,-000.5,0011.58,0007.35,0006.66
2023-04-23 03:48:00,,0832.3,4.99,0.00,22.1,20.5,00.0,30.5,23.7,16.4,-000.3,0011.34,0007.25,0006.57
2023-04-23 03:49:00,,0832.3,5.00,0.00,22.1,20.5,00.0,30.5,23.6,16.3,-000.2,0010.67,0007.08,0006.41
2023-04-23 03:50:00,,0832.3,5.01,0.00,22.1,20.5,00.0,30.5,23.6,16.4,0000.1,0010.36,0006.87,0006.27
2023-04-23 03:51:00,,0832.3,5.00,0.00,22.1,20.4,00.0,30.5,23.6,16.4,0000.8,0010.11,0006.68,0006.10
2023-04-23 03:52:00,,0832.3,5.00,0.00,22.0,20.4,00.0,30.5,23.6,16.3,0001.1,0009.92,0006.50,0005.92
2023-04-23 03:53:00,,0832.2,5.00,0.00,22.0,20.3,00.0,30.5,23.5,16.3,0000.7,0009.69,0006.31,0005.74
2023-04-23 03:54:00,,0832.2,4.99,0.00,22.0,20.3,00.0,30.5,23.5,16.4,0000.8,0009.47,0006.13,0005.58
2023-04-23 03:55:00,,0832.2,4.99,0.00,22.0,20.2,00.0,30.5,23.5,16.3,0000.8,0009.16,0005.91,0005.40
2023-04-23 03:56:00,,0832.2,4.99,0.00,22.0,20.2,00.0,30.4,23.4,16.3,0000.7,0008.87,0005.70,0005.25
2023-04-23 03:57:00,,0832.2,5.01,0.00,21.9,20.1,00.0,30.4,23.4,16.4,0000.6,0008.47,0005.56,0005.12
2023-04-23 03:58:00,,0832.2,5.01,0.00,21.9,20.2,00.0,30.4,23.4,16.3,0001.3,0008.28,0005.44,0005.02
2023-04-23 03:59:00,,0832.2,5.01,0.00,21.9,20.2,00.0,30.4,23.4,16.3,0001.8,0008.37,0005.40,0004.97
